Meteo orario Aliso Viejo

Oggi, 25 Ottobre, Domenica

Tempo Temperatura Precipitazioni Vento Pressione Umidità
00:00 +17°C° 0 mm 2 m/s 746 mm Hg 79%
01:00 +18°C° 0 mm 2 m/s 746 mm Hg 77%
02:00 +18°C° 0 mm 2 m/s 745 mm Hg 76%
03:00 +19°C° 0 mm 1 m/s 745 mm Hg 75%
04:00 +18°C° 0 mm 1 m/s 745 mm Hg 74%
05:00 +17°C° 0 mm 2 m/s 745 mm Hg 73%
06:00 +17°C° 0 mm 2 m/s 746 mm Hg 72%
07:00 +17°C° 0 mm 2 m/s 746 mm Hg 71%
08:00 +18°C° 0 mm 2 m/s 746 mm Hg 69%
09:00 +18°C° 0 mm 2 m/s 746 mm Hg 68%
10:00 +18°C° 0 mm 3 m/s 746 mm Hg 66%
11:00 +18°C° 0 mm 3 m/s 745 mm Hg 65%
12:00 +18°C° 0 mm 3 m/s 745 mm Hg 64%
13:00 +19°C° 0 mm 3 m/s 745 mm Hg 63%
14:00 +18°C° 0 mm 3 m/s 744 mm Hg 63%
15:00 +18°C° 0 mm 3 m/s 744 mm Hg 63%
16:00 +18°C° 0 mm 3 m/s 744 mm Hg 63%
17:00 +18°C° 0 mm 2 m/s 744 mm Hg 64%
18:00 +18°C° 0 mm 2 m/s 745 mm Hg 65%
19:00 +17°C° 0 mm 2 m/s 745 mm Hg 66%
20:00 +16°C° 0 mm 2 m/s 745 mm Hg 68%
21:00 +15°C° 0 mm 2 m/s 746 mm Hg 71%
22:00 +14°C° 0 mm 2 m/s 746 mm Hg 74%
23:00 +14°C° 0 mm 1 m/s 746 mm Hg 74%

Domani, 26 Ottobre, Lunedi

Tempo Temperatura Precipitazioni Vento Pressione Umidità
00:00 +14°C° 0 mm 1 m/s 746 mm Hg 75%
01:00 +14°C° 0 mm 1 m/s 746 mm Hg 75%
02:00 +13°C° 0 mm 1 m/s 746 mm Hg 76%
03:00 +13°C° 0 mm 1 m/s 746 mm Hg 77%
04:00 +13°C° 0 mm 1 m/s 747 mm Hg 78%
05:00 +14°C° 0 mm 1 m/s 747 mm Hg 74%
06:00 +15°C° 0 mm 1 m/s 748 mm Hg 69%
07:00 +16°C° 0 mm 1 m/s 749 mm Hg 65%
08:00 +18°C° 0 mm 3 m/s 749 mm Hg 48%
09:00 +20°C° 0 mm 5 m/s 749 mm Hg 31%
10:00 +22°C° 0 mm 6 m/s 750 mm Hg 15%
11:00 +23°C° 0 mm 7 m/s 749 mm Hg 12%
12:00 +24°C° 0 mm 8 m/s 749 mm Hg 9%
13:00 +26°C° 0 mm 8 m/s 749 mm Hg 7%
14:00 +24°C° 0 mm 8 m/s 749 mm Hg 6%
15:00 +24°C° 0 mm 8 m/s 748 mm Hg 6%
16:00 +24°C° 0 mm 8 m/s 748 mm Hg 6%
17:00 +22°C° 0 mm 7 m/s 749 mm Hg 7%
18:00 +20°C° 0 mm 7 m/s 749 mm Hg 7%
19:00 +18°C° 0 mm 7 m/s 750 mm Hg 7%
20:00 +17°C° 0 mm 6 m/s 750 mm Hg 8%
21:00 +17°C° 0 mm 5 m/s 750 mm Hg 8%
22:00 +18°C° 0 mm 4 m/s 751 mm Hg 8%
23:00 +17°C° 0 mm 4 m/s 750 mm Hg 9%

Dopodomani, 27 Ottobre, Martedi

Tempo Temperatura Precipitazioni Vento Pressione Umidità
00:00 +17°C° 0 mm 3 m/s 750 mm Hg 10%
01:00 +16°C° 0 mm 2 m/s 750 mm Hg 11%
02:00 +16°C° 0 mm 2 m/s 750 mm Hg 10%
03:00 +16°C° 0 mm 2 m/s 750 mm Hg 9%
04:00 +16°C° 0 mm 2 m/s 750 mm Hg 8%
05:00 +16°C° 0 mm 2 m/s 750 mm Hg 7%
06:00 +17°C° 0 mm 2 m/s 750 mm Hg 7%
07:00 +19°C° 0 mm 1 m/s 751 mm Hg 6%
08:00 +21°C° 0 mm 1 m/s 751 mm Hg 6%
09:00 +24°C° 0 mm 1 m/s 751 mm Hg 5%
10:00 +26°C° 0 mm 2 m/s 751 mm Hg 5%
11:00 +27°C° 0 mm 2 m/s 751 mm Hg 5%
12:00 +28°C° 0 mm 2 m/s 750 mm Hg 6%
13:00 +28°C° 0 mm 3 m/s 750 mm Hg 6%
14:00 +27°C° 0 mm 3 m/s 750 mm Hg 8%
15:00 +26°C° 0 mm 3 m/s 749 mm Hg 10%
16:00 +25°C° 0 mm 3 m/s 749 mm Hg 12%
17:00 +22°C° 0 mm 3 m/s 749 mm Hg 18%
18:00 +20°C° 0 mm 2 m/s 750 mm Hg 25%
19:00 +19°C° 0 mm 1 m/s 750 mm Hg 31%
20:00 +19°C° 0 mm 1 m/s 750 mm Hg 30%
21:00 +18°C° 0 mm 1 m/s 750 mm Hg 30%
22:00 +18°C° 0 mm 1 m/s 750 mm Hg 30%
23:00 +18°C° 0 mm 1 m/s 750 mm Hg 32%

28 Ottobre, Mercoledi

Tempo Temperatura Precipitazioni Vento Pressione Umidità
00:00 +18°C° 0 mm 1 m/s 750 mm Hg 34%
01:00 +16°C° 0 mm 0 m/s 749 mm Hg 36%
02:00 +18°C° 0 mm 1 m/s 749 mm Hg 33%
03:00 +18°C° 0 mm 1 m/s 749 mm Hg 29%
04:00 +18°C° 0 mm 1 m/s 749 mm Hg 26%
05:00 +19°C° 0 mm 1 m/s 749 mm Hg 23%
06:00 +20°C° 0 mm 1 m/s 749 mm Hg 21%
07:00 +21°C° 0 mm 1 m/s 749 mm Hg 19%
08:00 +24°C° 0 mm 1 m/s 749 mm Hg 16%
09:00 +26°C° 0 mm 1 m/s 749 mm Hg 14%
10:00 +29°C° 0 mm 1 m/s 749 mm Hg 11%
11:00 +29°C° 0 mm 1 m/s 749 mm Hg 11%
12:00 +30°C° 0 mm 2 m/s 748 mm Hg 10%
13:00 +31°C° 0 mm 2 m/s 747 mm Hg 10%
14:00 +30°C° 0 mm 2 m/s 747 mm Hg 11%
15:00 +29°C° 0 mm 2 m/s 747 mm Hg 13%
16:00 +28°C° 0 mm 3 m/s 747 mm Hg 14%
17:00 +25°C° 0 mm 2 m/s 747 mm Hg 22%
18:00 +21°C° 0 mm 2 m/s 747 mm Hg 31%
19:00 +20°C° 0 mm 1 m/s 747 mm Hg 39%
20:00 +19°C° 0 mm 1 m/s 748 mm Hg 38%
21:00 +19°C° 0 mm 1 m/s 748 mm Hg 38%
22:00 +19°C° 0 mm 1 m/s 748 mm Hg 37%
23:00 +19°C° 0 mm 1 m/s 748 mm Hg 38%

29 Ottobre, Giovedi

Tempo Temperatura Precipitazioni Vento Pressione Umidità
00:00 +19°C° 0 mm 1 m/s 748 mm Hg 39%
01:00 +18°C° 0 mm 1 m/s 747 mm Hg 39%
02:00 +18°C° 0 mm 1 m/s 747 mm Hg 39%
03:00 +18°C° 0 mm 1 m/s 747 mm Hg 39%
04:00 +18°C° 0 mm 1 m/s 747 mm Hg 38%
05:00 +19°C° 0 mm 1 m/s 747 mm Hg 33%
06:00 +20°C° 0 mm 1 m/s 747 mm Hg 27%
07:00 +21°C° 0 mm 1 m/s 748 mm Hg 21%
08:00 +24°C° 0 mm 1 m/s 748 mm Hg 18%
09:00 +27°C° 0 mm 1 m/s 748 mm Hg 15%
10:00 +30°C° 0 mm 1 m/s 748 mm Hg 11%
11:00 +30°C° 0 mm 1 m/s 748 mm Hg 11%
12:00 +31°C° 0 mm 2 m/s 747 mm Hg 11%
13:00 +31°C° 0 mm 2 m/s 747 mm Hg 11%
14:00 +30°C° 0 mm 2 m/s 747 mm Hg 13%
15:00 +30°C° 0 mm 2 m/s 747 mm Hg 14%
16:00 +29°C° 0 mm 3 m/s 747 mm Hg 15%
17:00 +26°C° 0 mm 2 m/s 747 mm Hg 24%
18:00 +23°C° 0 mm 2 m/s 747 mm Hg 32%
19:00 +21°C° 0 mm 1 m/s 747 mm Hg 40%
20:00 +20°C° 0 mm 1 m/s 748 mm Hg 40%
21:00 +20°C° 0 mm 1 m/s 748 mm Hg 41%
22:00 +19°C° 0 mm 1 m/s 748 mm Hg 42%
23:00 +17°C° 0 mm 0 m/s 748 mm Hg 41%

30 Ottobre, Venerdi

Tempo Temperatura Precipitazioni Vento Pressione Umidità
00:00 +17°C° 0 mm 0 m/s 748 mm Hg 41%
01:00 +17°C° 0 mm 0 m/s 748 mm Hg 40%
02:00 +19°C° 0 mm 1 m/s 748 mm Hg 41%
03:00 +18°C° 0 mm 1 m/s 748 mm Hg 41%
04:00 +18°C° 0 mm 1 m/s 748 mm Hg 42%
05:00 +19°C° 0 mm 1 m/s 748 mm Hg 35%
06:00 +20°C° 0 mm 1 m/s 748 mm Hg 29%
07:00 +21°C° 0 mm 1 m/s 748 mm Hg 23%
08:00 +24°C° 0 mm 1 m/s 749 mm Hg 19%
09:00 +28°C° 0 mm 1 m/s 749 mm Hg 15%
10:00 +31°C° 0 mm 1 m/s 749 mm Hg 11%
11:00 +31°C° 0 mm 1 m/s 749 mm Hg 11%
12:00 +32°C° 0 mm 2 m/s 748 mm Hg 10%
13:00 +32°C° 0 mm 2 m/s 748 mm Hg 10%
14:00 +31°C° 0 mm 2 m/s 748 mm Hg 12%
15:00 +30°C° 0 mm 2 m/s 747 mm Hg 15%
16:00 +30°C° 0 mm 3 m/s 747 mm Hg 17%
17:00 +27°C° 0 mm 2 m/s 748 mm Hg 26%
18:00 +24°C° 0 mm 2 m/s 748 mm Hg 35%
19:00 +21°C° 0 mm 1 m/s 748 mm Hg 43%
20:00 +20°C° 0 mm 1 m/s 748 mm Hg 44%
21:00 +20°C° 0 mm 1 m/s 748 mm Hg 45%
22:00 +20°C° 0 mm 1 m/s 749 mm Hg 46%
Mostrare altro

Abbiamo bisogno del tuo consenso

Meteoprog e i nostri fornitori di servizi possono memorizzare e accedere a dati personali come cookie, identificatori di dispositivi o altre tecnologie simili sul tuo dispositivo e possono elaborare tali dati per personalizzare i contenuti e gli annunci, nonché fornire funzionalità dei social media e analizzarne il traffico.

  • Archiviare e/o accedere alle informazioni sul tuo dispositivo

    Cookie, identificatori di dispositivi o altre informazioni possono essere memorizzati o resi accessibili sul tuo dispositivo per le finalità sopra indicate.

  • Annunci e contenuti personalizzati, misurazione di annunci e contenuti, approfondimenti sul pubblico e sviluppo di prodotti

    Gli annunci e i contenuti possono essere personalizzati in base a un profilo. È possibile aggiungere più dati per personalizzare meglio annunci e contenuti. È possibile misurare il rendimento degli annunci e dei contenuti. È possibile ricavare informazioni sul pubblico che ha visto gli annunci e i contenuti. Tali dati possono essere utilizzati per sviluppare o migliorare l'esperienza, i sistemi e il software dell'utente.

Cliccando su “Accetto”, acconsenti all'uso di cookie, identificatori di dispositivo, web beacon o altre tecnologie simili. Puoi modificare le impostazioni nel browser del tuo dispositivo.

Per determinati scopi, è possibile fare affidamento su interessi legali, piuttosto che sul consenso. Puoi approfondire questo argomento consultando la nostra Informativa sulla privacy e sui cookie.